This demonstration page uses our WeatherBlox Daily Observations layout. Learn more.

36.19886, -115.1175

Hourly Observations for September 25, 2020

Temp ( °F °C ) Dew Point ( °F °C ) Humidity (%) Winds ( mph kmh ) Pressure ( in mb ) Visibility ( mi km ) Precip ( " mm )
12:53 am 00:53 Clear 80 26.7 35 1.7 20 20 W 7 11 29.79 1009 10 16.0934 0 0
1:53 am 01:53 Clear 80 26.7 34 1.1 19 19 NNW 5 7 29.79 1009 10 16.0934 0 0
2:53 am 02:53 Clear 75 23.9 33 0.6 22 22 NW 7 11 29.8 1009 10 16.0934 0 0
3:53 am 03:53 Clear 74 23.3 37 2.8 26 26 W 6 9 29.81 1009 10 16.0934 0 0
4:53 am 04:53 Clear 72 22.2 35 1.7 26 26 NW 8 13 29.83 1010 10 16.0934 0 0
5:53 am 05:53 Clear 71 21.7 36 2.2 28 28 WNW 6 9 29.84 1011 10 16.0934 0 0
6:53 am 06:53 Sunny 72 22.2 36 2.2 27 27 Calm 29.86 1011 10 16.0934 0 0
7:53 am 07:53 Sunny 76 24.4 36 2.2 23 23 Calm 29.88 1012 10 16.0934 0 0
8:53 am 08:53 Sunny 81 27.2 34 1.1 18 18 Calm 29.89 1012 10 16.0934 0 0
9:53 am 09:53 Sunny 86 30 34 1.1 15 15 N 3 6 29.91 1013 10 16.0934 0 0
10:53 am 10:53 Sunny 88 31.1 33 0.6 14 14 Calm 29.91 1013 10 16.0934 0 0
11:53 am 11:53 Sunny 92 33.3 32 0 12 12 VRB 3 6 29.89 1012 10 16.0934 0 0
12:53 pm 12:53 Hazy 95 35 31 -0.6 10 10 E 9 15 29.87 1012 10 16.0934 0 0
1:53 pm 13:53 Hazy 98 36.7 32 0 10 10 SSE 9 15 29.83 1010 10 16.0934 0 0
2:53 pm 14:53 Hazy 99 37.2 30 -1.1 9 9 SSW 9 15 29.81 1010 10 16.0934 0 0
3:53 pm 15:53 Hazy 100 37.8 26 -3.3 7 7 SSE 13 20 29.79 1009 10 16.0934 0 0
4:53 pm 16:53 Hazy 100 37.8 27 -2.8 7 7 S 10 17 29.79 1009 10 16.0934 0 0
5:53 pm 17:53 Hazy 99 37.2 26 -3.3 7 7 SSW 6 9 29.79 1009 10 16.0934 0 0
6:53 pm 18:53 Hazy 95 35 29 -1.7 9 9 S 3 6 29.81 1009 10 16.0934 0 0
7:53 pm 19:53 Hazy 92 33.3 29 -1.7 10 10 Calm 29.83 1010 10 16.0934 0 0
8:53 pm 20:53 Hazy 86 30 30 -1.1 13 13 SSE 5 7 29.84 1011 10 16.0934 0 0
9:53 pm 21:53 Hazy 86 30 24 -4.4 10 10 S 10 17 29.85 1011 10 16.0934 0 0
10:53 pm 22:53 Hazy 85 29.4 23 -5 10 10 WSW 6 9 29.86 1011 10 16.0934 0 0
11:53 pm 23:53 Hazy 81 27.2 30 -1.1 16 16 W 6 9 29.87 1012 10 16.0934 0 0

Powered by AerisWeather